Regional Weather Roundup
Issued by NWS

Home | Current Version | Previous Version | Text Only | Print | Product List | Glossary On
Versions: 1 2 3 4 5 6 7 8 9 10 11 12 13 14 15 16 17 18 19 20 21 22 23 24 25 26 27 28 29 30 31 32 33 34 35 36 37 38 39 40 41 42 43 44 45 46 47 48 49 50
000
ASUS43 KOAX 290510
RWRNE

WEATHER ROUNDUP FOR NEBRASKA
NATIONAL WEATHER SERVICE OMAHA NE
1200 AM CDT TUE JUL 29 2014

NOTES: SATELLITE DATA IS BEING USED TO AUGMENT CLOUD COVER ABOVE
       12000 FEET.
       "FAIR" INDICATES FEW OR NO CLOUDS BELOW 12,000 FEET WITH NO
       SIGNIFICANT WEATHER AND/OR OBSTRUCTIONS TO VISIBILITY.

  * THESE STATIONS DO NOT REPORT WEATHER SUCH AS RAIN...SNOW OR FOG.

NEZ001>004-019>022-054>056-290600-
NEBRASKA PANHANDLE

CITY           SKY/WX    TMP DP  RH WIND       PRES   REMARKS
SCOTTSBLUFF    CLEAR     70  61  73 E9        30.22F
ALLIANCE       CLEAR     68  58  70 E9        30.24S
CHADRON        CLEAR     67  54  63 E8        30.23S
KIMBALL        PTCLDY    65  56  71 S5        30.26F
SIDNEY         MOCLDY    68  53  58 S6        30.26F
$$

NEZ057>060-069>072-079>082-290600-
SOUTHWEST NEBRASKA

CITY           SKY/WX    TMP DP  RH WIND       PRES   REMARKS
NORTH PLATTE   PTCLDY    63  58  83 E7        30.23S
IMPERIAL       CLOUDY    68  58  70 SE12      30.23F
LEXINGTON      MOCLDY    68  59  73 SE7       30.23F
MCCOOK         MOCLDY    68  59  73 E9        30.23S
OGALLALA       PTCLDY    65  59  78 E8        30.23S
$$

NEZ005>010-023>029-035>040-094-290600-
NORTH CENTRAL NEBRASKA

CITY           SKY/WX    TMP DP  RH WIND       PRES   REMARKS
VALENTINE      CLEAR     64  51  62 E7        30.25S
AINSWORTH      CLEAR     59  56  88 E3        30.25S
BROKEN BOW     CLEAR     63  57  81 SE5       30.23S
O`NEILL        CLEAR     62  53  72 E3        30.25S
ORD            CLEAR     61  57  87 CALM      30.22S
THEDFORD       CLEAR     64  56  74 E3        30.26S
$$

NEZ041-046>049-061>064-073>077-083>087-290600-
SOUTH CENTRAL NEBRASKA

CITY           SKY/WX    TMP DP  RH WIND       PRES   REMARKS
GRAND ISLAND   CLEAR     63  57  81 E3        30.23S
AURORA         CLEAR     61  59  92 E3        30.22S
HASTINGS       MOCLDY    67  54  63 E6        30.22S
HEBRON         PTCLDY    62  56  80 CALM      30.20S
HOLDREGE       MOCLDY    66  58  76 E8        30.23S
KEARNEY *      MOCLDY    64  57  77 E6        30.23F
YORK           CLEAR     59  57  94 E8        30.22S
$$

NEZ011>018-030>034-042>045-290600-
NORTHEAST NEBRASKA

CITY           SKY/WX    TMP DP  RH WIND       PRES   REMARKS
NORFOLK        CLEAR     58  53  84 SW3       30.22R
ALBION         CLEAR     58  54  88 CALM      30.24S
BLAIR          CLEAR     65  54  69 N7        30.20S
COLUMBUS *     CLEAR     57  50  77 NE3       30.22S
FREMONT        CLEAR     64  56  74 CALM      30.21R
TEKAMAH        CLEAR     61  56  83 N5        30.19S
WAYNE          CLEAR     56  54  95 CALM      30.22S
$$

NEZ050>053-065>068-078-088>093-290600-
SOUTHEAST NEBRASKA

CITY           SKY/WX    TMP DP  RH WIND       PRES   REMARKS
LINCOLN        CLEAR     61  53  75 NW5       30.21S
OMAHA EPPLEY   CLEAR     64  56  75 N6        30.19S
BEATRICE       CLEAR     58  54  87 CALM      30.20S
FALLS CITY     CLEAR     62  56  80 NW5       30.18S
NEBRASKA CITY  CLEAR     61  55  79 NW5       30.20R
PLATTSMOUTH    CLEAR     62  55  76 W6        30.20R
$$

NEZ044-045-051>053-067-290600-
OMAHA AREA

CITY           SKY/WX    TMP DP  RH WIND       PRES   REMARKS
OMAHA EPPLEY   CLEAR     64  56  75 N6        30.19S
BLAIR          CLEAR     65  54  69 N7        30.20S
FREMONT        CLEAR     64  56  74 CALM      30.21R
MILLARD        CLEAR     64  56  75 CALM      30.20R
OFFUTT AFB     CLEAR     62  58  85 CALM      30.19R
PLATTSMOUTH    CLEAR     62  55  76 W6        30.20R
WAHOO          FAIR      61  55  81 NW3       30.21S
$$



USA.gov is the U.S. government's official web portal to all federal, state and local government web resources and services.